Location: Ahausen
(50.4985°N, 8.2722°E)
Time: 06:21:58
(UTC+00:00)

CSL-04 Rocket - Pass Details

Date: 18 September 2020
Orbit: 806 x 860 km, 98.9° (Epoch: 21 October)

Event Time Altitude Azimuth Distance (km) Brightness Sun altitude
Rises 18:26:32 0° 169° (S) 3,357 6.6 -9.2°
Reaches altitude 10° 18:28:52 10° 172° (S) 2,436 5.9 -9.6°
Maximum altitude 18:34:16 71° 256° (WSW) 893 4.0 -10.4°
Drops below altitude 10° 18:39:47 10° 341° (NNW) 2,487 6.7 -11.2°
Sets 18:42:11 0° 344° (NNW) 3,434 7.4 -11.6°
